COSMOS 2500 (755) (40001 NORAD) Tracking and Keplerian Element Data

This shows tracking and keplerian element data for the satellite.

Feedback or suggestion? Click here.




ElementValue
Catalog40001
NameCOSMOS 2500 (755)
Epoch Orbit3183
Epoch Day198.69373516
Epoch Year2018
RAAN51.1846
Inclination65.4241
Eccentricity0.000462
Argument of Perigee192.0966
Mean Anonmoly341.2445
Mean Motion2.13102885
Decay Rate-5.4E-07
L11 40001U 14032A 18198.69373516 -.00000054 00000-0 00000-0 0 9992
L22 40001 65.4241 51.1846 0004620 192.0966 341.2445 2.13102885 31837

Live tracking and technical data element details for COSMOS 2500 (755) (NORAD 40001). COSMOS 2500 (755) can be tracked NOW for your location showing map with azimuth and elevation plus other details from your city location.

Track the satellite on the map from your city or location and see movement details for azimuth, elevation, latitude, longitude, range, height, and movement on the map or in text.







IsCatalogInMostPopularTable: catalog: 40001, numindb: 47
Update: records affected: 1



GetName: 40001 COSMOS 2500 (755)

Hit Count: updated at: Thu, 19 Jul 2018 21:26:05 GMT